Williamstown, MA

11:55 PM EDT on August 27, 2016 (GMT -0400)
Harriman And West

Weather History for KAQW - January, 2014

Change the Weather History Date:

Wednesday, January 22, 2014

  Actual Average Record
Temperature  
Mean Temperature -1 °F -  
Max Temperature 5 °F 25 °F 46 °F (1997)
Min Temperature -7 °F 9 °F -15 °F (2005)
Degree Days  
Heating Degree Days 66    
Moisture  
Dew Point -12 °F    
Average Humidity 60    
Maximum Humidity 69    
Minimum Humidity 50    
Precipitation  
Precipitation 0.00 in - - ()
Sea Level Pressure  
Sea Level Pressure 29.94 in    
Wind  
Wind Speed 7 mph (West)    
Max Wind Speed 13 mph    
Max Gust Speed 22 mph    
Visibility 10 miles    
Events      
Averages and records for this station are not official NWS values.
T = Trace of Precipitation, MM = Missing Value Source: NWS Daily Summary

Daily Weather History Graph

Daily Weather History Graph

Search for Another Location

Airport or City:

Trip Planner

Search our weather history database for the weather conditions in past years. The results will help you decide how hot, cold, wet, or windy it might be!

Date:

Astronomy

Jan. 22, 2014 Rise Set
Actual Time 7:16 AM EST 4:53 PM EST
Civil Twilight 6:45 AM EST 5:23 PM EST
Nautical Twilight 6:10 AM EST 5:58 PM EST
Astronomical Twilight 5:37 AM EST 6:31 PM EST
Moon 11:32 PM EST (1/22) 10:06 AM EST (1/22)
Length of Visible Light 10h 38m
Length of Day
9h 37m
Waning Gibbous, 65% of the Moon is Illuminated
Jan 22
Waning Gibbous
Jan 24
Last Quarter
Jan 30
New
Feb 6
First Quarter
Feb 14
Full

Hourly Weather History & Observations

Time (EST) Temp. Windchill Dew Point Humidity Pressure Visibility Wind Dir Wind Speed Gust Speed Precip Events Conditions
12:52 AM -0.9 °F -11.0 °F -9.9 °F 66% 29.94 in 10.0 mi Variable 4.6 mph - N/A   Clear
1:52 AM -2.9 °F -16.5 °F -11.9 °F 65% 29.95 in 10.0 mi West 6.9 mph - N/A   Clear
2:52 AM -4.0 °F -16.3 °F -13.0 °F 65% 29.96 in 10.0 mi Variable 5.8 mph - N/A   Clear
3:52 AM -5.1 °F -23.5 °F -14.1 °F 65% 29.94 in 10.0 mi West 11.5 mph 19.6 mph N/A   Clear
4:52 AM -6.0 °F -22.6 °F -14.1 °F 68% 29.94 in 10.0 mi WSW 9.2 mph - N/A   Clear
5:52 AM -6.0 °F -20.1 °F -15.0 °F 65% 29.94 in 10.0 mi West 6.9 mph - N/A   Clear
6:52 AM -7.1 °F -23.9 °F -16.1 °F 65% 29.94 in 10.0 mi WSW 9.2 mph - N/A   Clear
7:52 AM -7.1 °F -19.9 °F -16.1 °F 65% 29.95 in 10.0 mi Variable 5.8 mph - N/A   Clear
8:52 AM -5.1 °F -17.6 °F -16.1 °F 59% 29.94 in 10.0 mi WNW 5.8 mph - N/A   Clear
9:52 AM -4.0 °F -19.0 °F -15.0 °F 59% 29.94 in 10.0 mi WNW 8.1 mph - N/A   Clear
10:52 AM -0.9 °F -16.4 °F -13.0 °F 57% 29.90 in 10.0 mi West 9.2 mph 18.4 mph N/A   Clear
11:52 AM 1.0 °F -14.0 °F -13.0 °F 52% 29.87 in 10.0 mi West 9.2 mph 21.9 mph N/A   Clear
12:52 PM 1.9 °F -13.8 °F -11.0 °F 55% 29.84 in 10.0 mi West 10.4 mph 18.4 mph N/A   Clear
1:52 PM 3.9 °F -13.0 °F -9.9 °F 53% 29.85 in 10.0 mi West 12.7 mph 21.9 mph N/A   Clear
2:52 PM 5.0 °F -8.1 °F -9.9 °F 50% 29.88 in 10.0 mi WNW 8.1 mph 16.1 mph N/A   Clear
3:52 PM 5.0 °F -9.1 °F -9.9 °F 50% 29.90 in 10.0 mi West 9.2 mph - N/A   Clear
4:52 PM 3.9 °F -8.2 °F -9.9 °F 53% 29.91 in 10.0 mi WSW 6.9 mph - N/A   Clear
5:52 PM 3.0 °F -12.5 °F -9.9 °F 55% 29.94 in 10.0 mi West 10.4 mph - N/A   Clear
6:52 PM 3.0 °F -8.0 °F -9.9 °F 55% 29.95 in 10.0 mi West 5.8 mph - N/A   Clear
7:52 PM 1.9 °F -12.9 °F -9.9 °F 58% 29.98 in 10.0 mi West 9.2 mph - N/A   Clear
8:52 PM 1.0 °F -11.7 °F -9.0 °F 63% 29.99 in 10.0 mi West 6.9 mph - N/A   Clear
9:52 PM -0.9 °F -12.7 °F -9.9 °F 66% 30.00 in 10.0 mi West 5.8 mph - N/A   Clear
10:52 PM -2.0 °F -15.4 °F -9.9 °F 69% 30.00 in 10.0 mi West 6.9 mph - N/A   Clear
11:52 PM -2.0 °F -15.4 °F -9.9 °F 69% 30.01 in 10.0 mi West 6.9 mph - N/A   Clear